TimeEST,TemperatureF,Dew PointF,Humidity,Sea Level PressureIn,VisibilityMPH,Wind Direction,Wind SpeedMPH,Gust SpeedMPH,PrecipitationIn,Events,Conditions,WindDirDegrees,DateUTC
12:56 AM,46.9,45.0,93,29.92,5.0,ESE,16.1,26.5,0.13,Rain,Rain,110,2011-11-23 05:56:00
1:56 AM,46.9,45.0,93,29.85,5.0,East,16.1,27.6,0.04,Rain,Light Rain,100,2011-11-23 06:56:00
2:56 AM,48.0,46.0,93,29.78,3.0,East,11.5,24.2,0.07,Rain,Light Rain,90,2011-11-23 07:56:00
3:56 AM,48.9,48.0,97,29.72,3.0,East,11.5,-,0.09,Rain,Light Rain,90,2011-11-23 08:56:00
4:56 AM,50.0,48.9,96,29.66,3.0,East,11.5,-,0.09,Rain,Rain,80,2011-11-23 09:56:00
5:56 AM,48.9,46.9,93,29.67,3.0,North,11.5,-,0.17,Rain,Light Rain,360,2011-11-23 10:56:00
6:23 AM,46.4,44.6,93,29.65,3.0,North,8.1,-,0.01,Rain,Light Rain,10,2011-11-23 11:23:00
6:56 AM,46.0,43.0,89,29.64,6.0,NNE,4.6,-,0.03,Rain,Light Rain,20,2011-11-23 11:56:00
7:56 AM,46.0,43.0,89,29.64,10.0,NNW,4.6,-,0.02,,Drizzle,330,2011-11-23 12:56:00
8:56 AM,45.0,42.1,90,29.65,10.0,North,9.2,-,0.00,,Drizzle,360,2011-11-23 13:56:00
9:56 AM,44.1,42.1,93,29.62,9.0,NNE,5.8,-,0.00,,Overcast,20,2011-11-23 14:56:00
10:56 AM,45.0,42.1,90,29.60,8.0,NNW,9.2,-,N/A,,Overcast,340,2011-11-23 15:56:00
11:15 AM,44.6,42.8,93,29.58,1.5,North,8.1,-,N/A,,Overcast,350,2011-11-23 16:15:00
11:56 AM,44.1,42.1,93,29.59,1.5,NNW,10.4,-,0.00,Rain,Light Rain,340,2011-11-23 16:56:00
12:56 PM,44.1,42.1,93,29.59,5.0,NNW,11.5,-,0.07,Rain,Light Rain,340,2011-11-23 17:56:00
1:35 PM,44.6,42.8,93,29.59,5.0,NNW,9.2,-,0.00,,Overcast,340,2011-11-23 18:35:00
1:56 PM,45.0,42.1,90,29.61,8.0,North,11.5,-,0.00,,Overcast,350,2011-11-23 18:56:00
3:56 PM,43.0,37.9,82,29.72,10.0,NNW,16.1,21.9,0.00,,Mostly Cloudy,340,2011-11-23 20:56:00
4:20 PM,42.8,37.4,81,29.71,10.0,North,16.1,24.2,0.00,Rain,Light Rain,350,2011-11-23 21:20:00
4:56 PM,42.1,37.0,82,29.75,10.0,North,19.6,26.5,0.01,Rain,Light Rain,360,2011-11-23 21:56:00
5:56 PM,41.0,35.1,79,29.81,10.0,North,15.0,25.3,0.00,,Mostly Cloudy,350,2011-11-23 22:56:00
6:56 PM,39.9,34.0,79,29.85,10.0,North,18.4,25.3,N/A,,Scattered Clouds,350,2011-11-23 23:56:00
7:56 PM,39.2,33.8,81,29.88,10.0,NNW,13.8,-,N/A,,Scattered Clouds,340,2011-11-24 00:56:00
8:56 PM,37.9,33.1,83,29.93,10.0,NNW,11.5,-,N/A,,Scattered Clouds,340,2011-11-24 01:56:00
9:56 PM,39.0,33.1,79,29.96,10.0,NNW,13.8,-,N/A,,Scattered Clouds,340,2011-11-24 02:56:00
10:56 PM,39.9,32.0,73,29.97,10.0,North,20.7,29.9,N/A,,Overcast,360,2011-11-24 03:56:00
11:56 PM,39.0,30.9,73,29.99,10.0,North,9.2,-,N/A,,Scattered Clouds,350,2011-11-24 04:56:00